{"data":{"norad_id":38977,"epoch":"2026-09-20T04:51:56.228832Z","epoch_age_seconds":44023,"freshness":"FRESH","line1":"1 38977U 12061A   26263.20273413 -.00000137  00000+0  00000+0 0  9995","line2":"2 38977  10.6854  48.9112 0005872 164.6917 202.1736  1.00273421 50568","mean_motion":1.00273421,"eccentricity":0.0005872,"inclination_deg":10.6854,"raan_deg":48.9112,"arg_perigee_deg":164.6917,"mean_anomaly_deg":202.1736,"bstar":0,"rev_number":5056,"period_min":1436.0734735479,"perigee_km":35761.377475934,"apogee_km":35810.895198541,"semimajor_km":42164.273337238,"source":"CELESTRAK","updated_at":"2026-09-20T09:00:46.834516Z"}}